Location: A�t Lahcen
(32.8243°N, 5.4246°W)
Time: 01:51:41
(UTC+00:00)

ADEOS - Pass Details

Date: 27 January 2021
Orbit: 792 x 794 km, 98.9° (Epoch: 26 February)

Event Time Altitude Azimuth Distance (km) Brightness Sun altitude
Rises 04:40:46 0° 19° (NNE) 3,295 7.0 -33.4°
Reaches altitude 10° 04:43:09 10° 24° (NNE) 2,362 6.2 -32.9°
Enters shadow 04:47:39 51° 75° (ENE) 992 4.3 -32.0°
Exits shadow 04:53:52 - 180° (S) 2,565 6.2 -30.7°
Sets 04:55:40 0° 183° (S) 3,275 6.8 -30.3°
